Location: La B�doule
(43.2468°N, 5.5934°E)
Time: 20:17:12
(UTC+00:00)

Shenzhou-11 Module - Visible Passes

Search period start: 25 September 2020 00:00
Search period end: 05 October 2020 00:00
Orbit: 219 x 233 km, 42.8° (Epoch: 24 September)

Date Brightness Start Highest point End Pass type
(mag) Time Alt. Az. Time Alt. Az. Time Alt. Az.
25 Sep 3.3 19:03:03 10° WSW 19:04:04 23° WSW 19:04:04 23° WSW visible
26 Sep 1.3 18:45:07 10° WSW 18:46:56 58° SW 18:46:56 58° SW visible
27 Sep 0.8 18:26:33 10° W 18:28:36 74° S 18:29:08 41° E visible
28 Sep 0.8 18:07:23 10° W 18:09:25 78° S 18:10:43 18° E visible
30 Sep 4.0 19:00:09 10° W 19:00:50 17° WSW 19:00:50 17° WSW visible
01 Oct 2.5 18:39:06 10° W 18:40:37 29° SW 18:40:37 29° SW visible
02 Oct 2.5 18:17:26 10° W 18:19:09 27° SSW 18:19:51 21° SSE visible
03 Oct 2.8 17:55:09 10° W 17:56:47 23° SSW 17:58:25 10° SE visible
